Time,TemperatureF,DewpointF,PressureIn,WindDirection,WindDirectionDegrees,WindSpeedMPH,WindSpeedGustMPH,Humidity,HourlyPrecipIn,Conditions,Clouds,dailyrainin,SoftwareType,DateUTC
2013-03-24 00:04:00,39.6,28.1,29.84,SSE,150,0.0,0.0,63,0.00,,,0.00,LWC V2.00 B2112,2013-03-24 04:04:00,
2013-03-24 00:09:00,39.6,28.4,29.84,SSE,150,0.0,0.0,64,0.00,,,0.00,LWC V2.00 B2112,2013-03-24 04:09:00,
2013-03-24 00:14:00,38.9,28.5,29.84,SSE,150,0.0,0.0,66,0.00,,,0.00,LWC V2.00 B2112,2013-03-24 04:14:00,
2013-03-24 00:19:00,38.6,28.2,29.84,SSE,150,0.0,0.0,66,0.00,,,0.00,LWC V2.00 B2112,2013-03-24 04:19:00,
2013-03-24 00:24:00,38.8,28.4,29.84,SSE,150,0.0,0.0,66,0.00,,,0.00,LWC V2.00 B2112,2013-03-24 04:24:00,
2013-03-24 00:29:00,38.8,28.4,29.83,SSE,150,0.0,0.0,66,0.00,,,0.00,LWC V2.00 B2112,2013-03-24 04:29:00,
2013-03-24 00:34:00,38.8,29.5,29.83,SSE,150,0.0,0.0,69,0.00,,,0.00,LWC V2.00 B2112,2013-03-24 04:34:00,
2013-03-24 00:39:00,38.9,28.5,29.83,SSE,150,0.0,0.0,66,0.00,,,0.00,LWC V2.00 B2112,2013-03-24 04:39:00,
2013-03-24 00:44:00,39.5,29.1,29.84,SSE,150,0.0,0.0,66,0.00,,,0.00,LWC V2.00 B2112,2013-03-24 04:44:00,
2013-03-24 00:49:00,39.1,29.4,29.84,SSE,150,0.0,0.0,68,0.00,,,0.00,LWC V2.00 B2112,2013-03-24 04:49:00,
2013-03-24 00:54:00,38.8,28.8,29.84,SSE,150,0.0,0.0,67,0.00,,,0.00,LWC V2.00 B2112,2013-03-24 04:54:00,
2013-03-24 00:59:00,38.3,28.7,29.81,SSE,150,0.0,0.0,68,0.00,,,0.00,LWC V2.00 B2112,2013-03-24 04:59:00,
2013-03-24 01:04:00,38.0,28.4,29.81,SSE,150,0.0,0.0,68,0.00,,,0.00,LWC V2.00 B2112,2013-03-24 05:04:00,
2013-03-24 01:09:00,37.8,27.8,29.81,SSE,150,0.0,0.0,67,0.00,,,0.00,LWC V2.00 B2112,2013-03-24 05:09:00,
2013-03-24 01:14:00,37.8,27.8,29.83,SSE,150,0.0,0.0,67,0.00,,,0.00,LWC V2.00 B2112,2013-03-24 05:14:00,
2013-03-24 01:19:00,37.8,28.2,29.83,SSE,150,0.0,0.0,68,0.00,,,0.00,LWC V2.00 B2112,2013-03-24 05:19:00,
2013-03-24 01:24:00,37.6,29.1,29.83,SSE,150,0.0,0.0,71,0.00,,,0.00,LWC V2.00 B2112,2013-03-24 05:24:00,
2013-03-24 01:29:00,37.0,28.5,29.82,SSE,150,0.0,0.0,71,0.00,,,0.00,LWC V2.00 B2112,2013-03-24 05:29:00,
2013-03-24 01:34:00,36.8,27.9,29.82,SSE,150,0.0,0.0,70,0.00,,,0.00,LWC V2.00 B2112,2013-03-24 05:34:00,
2013-03-24 01:39:00,36.6,27.4,29.82,SSE,150,0.0,0.0,69,0.00,,,0.00,LWC V2.00 B2112,2013-03-24 05:39:00,
2013-03-24 01:44:00,36.8,27.9,29.83,SSE,150,0.0,0.0,70,0.00,,,0.00,LWC V2.00 B2112,2013-03-24 05:44:00,
2013-03-24 01:49:00,36.8,27.9,29.83,SSE,150,0.0,0.0,70,0.00,,,0.00,LWC V2.00 B2112,2013-03-24 05:49:00,
2013-03-24 01:54:00,36.8,27.6,29.83,SSE,150,0.0,0.0,69,0.00,,,0.00,LWC V2.00 B2112,2013-03-24 05:54:00,
2013-03-24 01:59:00,36.9,28.0,29.83,SSE,150,0.0,0.0,70,0.00,,,0.00,LWC V2.00 B2112,2013-03-24 05:59:00,
2013-03-24 02:04:00,36.9,28.0,29.83,SSE,150,0.0,0.0,70,0.00,,,0.00,LWC V2.00 B2112,2013-03-24 06:04:00,
2013-03-24 02:09:00,36.8,27.9,29.83,SSE,150,0.0,0.0,70,0.00,,,0.00,LWC V2.00 B2112,2013-03-24 06:09:00,
2013-03-24 02:14:00,36.6,27.8,29.81,SSE,150,0.0,0.0,70,0.00,,,0.00,LWC V2.00 B2112,2013-03-24 06:14:00,
2013-03-24 02:19:00,36.6,28.1,29.81,SSE,150,0.0,0.0,71,0.00,,,0.00,LWC V2.00 B2112,2013-03-24 06:19:00,
2013-03-24 02:24:00,36.6,27.8,29.81,SSE,150,0.0,0.0,70,0.00,,,0.00,LWC V2.00 B2112,2013-03-24 06:24:00,
2013-03-24 02:29:00,36.9,27.7,29.81,SSE,150,0.0,0.0,69,0.00,,,0.00,LWC V2.00 B2112,2013-03-24 06:29:00,
2013-03-24 02:34:00,37.0,28.1,29.81,SSE,150,0.0,0.0,70,0.00,,,0.00,LWC V2.00 B2112,2013-03-24 06:34:00,
2013-03-24 02:39:00,37.3,28.8,29.81,SSE,150,0.0,0.0,71,0.00,,,0.00,LWC V2.00 B2112,2013-03-24 06:39:00,
2013-03-24 02:44:00,37.3,28.8,29.81,SSE,150,0.0,0.0,71,0.00,,,0.00,LWC V2.00 B2112,2013-03-24 06:44:00,
2013-03-24 02:49:00,37.5,29.0,29.81,SSE,150,0.0,0.0,71,0.00,,,0.00,LWC V2.00 B2112,2013-03-24 06:49:00,
2013-03-24 02:54:00,37.6,29.4,29.81,SSE,150,0.0,0.0,72,0.00,,,0.00,LWC V2.00 B2112,2013-03-24 06:54:00,
2013-03-24 02:59:00,37.8,28.9,29.80,SSE,150,0.0,0.0,70,0.00,,,0.00,LWC V2.00 B2112,2013-03-24 06:59:00,
2013-03-24 03:04:00,38.2,29.3,29.80,SSE,150,0.0,0.0,70,0.00,,,0.00,LWC V2.00 B2112,2013-03-24 07:04:00,
2013-03-24 03:09:00,38.3,29.0,29.80,SSE,150,0.0,0.0,69,0.00,,,0.00,LWC V2.00 B2112,2013-03-24 07:09:00,
2013-03-24 03:14:00,38.6,29.7,29.81,SSE,150,0.0,0.0,70,0.00,,,0.00,LWC V2.00 B2112,2013-03-24 07:14:00,
2013-03-24 03:19:00,38.6,29.3,29.81,SSE,150,0.0,0.0,69,0.00,,,0.00,LWC V2.00 B2112,2013-03-24 07:19:00,
2013-03-24 03:24:00,38.8,29.2,29.81,SSE,150,0.0,0.0,68,0.00,,,0.00,LWC V2.00 B2112,2013-03-24 07:24:00,
2013-03-24 03:29:00,38.8,31.2,29.82,SSE,150,0.0,0.0,74,0.00,,,0.00,LWC V2.00 B2112,2013-03-24 07:29:00,
2013-03-24 03:34:00,38.8,31.6,29.82,SSE,150,0.0,0.0,75,0.00,,,0.00,LWC V2.00 B2112,2013-03-24 07:34:00,
2013-03-24 03:39:00,38.6,30.0,29.82,SSE,150,0.0,0.0,71,0.00,,,0.00,LWC V2.00 B2112,2013-03-24 07:39:00,
2013-03-24 03:44:00,38.5,30.6,29.82,SSE,150,0.0,0.0,73,0.00,,,0.00,LWC V2.00 B2112,2013-03-24 07:44:00,
2013-03-24 03:49:00,38.5,30.9,29.82,SSE,150,0.0,0.0,74,0.00,,,0.00,LWC V2.00 B2112,2013-03-24 07:49:00,
2013-03-24 03:54:00,38.5,30.6,29.82,SSE,150,0.0,0.0,73,0.00,,,0.00,LWC V2.00 B2112,2013-03-24 07:54:00,
2013-03-24 03:59:00,38.5,30.9,29.83,SSE,150,0.0,0.0,74,0.00,,,0.00,LWC V2.00 B2112,2013-03-24 07:59:00,
2013-03-24 04:04:00,38.5,30.9,29.83,SSE,150,0.0,0.0,74,0.00,,,0.00,LWC V2.00 B2112,2013-03-24 08:04:00,
2013-03-24 04:09:00,38.5,30.9,29.83,SSE,150,0.0,0.0,74,0.00,,,0.00,LWC V2.00 B2112,2013-03-24 08:09:00,
2013-03-24 04:14:00,38.5,31.3,29.83,SSE,150,0.0,0.0,75,0.00,,,0.00,LWC V2.00 B2112,2013-03-24 08:14:00,
2013-03-24 04:19:00,38.5,31.3,29.83,SSE,150,0.0,0.0,75,0.00,,,0.00,LWC V2.00 B2112,2013-03-24 08:19:00,
2013-03-24 04:24:00,38.3,31.1,29.83,SSE,150,0.0,0.0,75,0.00,,,0.00,LWC V2.00 B2112,2013-03-24 08:24:00,
2013-03-24 04:29:00,38.3,31.4,29.81,SSE,150,0.0,0.0,76,0.00,,,0.00,LWC V2.00 B2112,2013-03-24 08:29:00,
2013-03-24 04:34:00,38.3,31.7,29.81,SSE,150,0.0,0.0,77,0.00,,,0.00,LWC V2.00 B2112,2013-03-24 08:34:00,
2013-03-24 04:39:00,38.2,32.0,29.81,SSE,150,0.0,0.0,78,0.00,,,0.00,LWC V2.00 B2112,2013-03-24 08:39:00,
2013-03-24 04:44:00,38.2,32.3,29.80,SSE,150,0.0,0.0,79,0.00,,,0.00,LWC V2.00 B2112,2013-03-24 08:44:00,
2013-03-24 04:49:00,38.0,32.1,29.80,SSE,150,0.0,0.0,79,0.00,,,0.00,LWC V2.00 B2112,2013-03-24 08:49:00,
2013-03-24 04:54:00,38.0,32.1,29.80,SSE,150,0.0,0.0,79,0.00,,,0.00,LWC V2.00 B2112,2013-03-24 08:54:00,
2013-03-24 04:59:00,38.2,31.6,29.80,SSE,150,0.0,0.0,77,0.00,,,0.00,LWC V2.00 B2112,2013-03-24 08:59:00,
2013-03-24 05:04:00,38.3,31.4,29.80,SSE,150,0.0,0.0,76,0.00,,,0.00,LWC V2.00 B2112,2013-03-24 09:04:00,
2013-03-24 05:09:00,38.3,31.4,29.80,SSE,150,0.0,0.0,76,0.00,,,0.00,LWC V2.00 B2112,2013-03-24 09:09:00,
2013-03-24 05:14:00,38.3,31.4,29.78,SSE,150,0.0,0.0,76,0.00,,,0.00,LWC V2.00 B2112,2013-03-24 09:14:00,
2013-03-24 05:19:00,38.5,31.3,29.78,SSE,150,0.0,0.0,75,0.00,,,0.00,LWC V2.00 B2112,2013-03-24 09:19:00,
2013-03-24 05:24:00,38.8,31.6,29.78,SSE,150,0.0,0.0,75,0.00,,,0.00,LWC V2.00 B2112,2013-03-24 09:24:00,
2013-03-24 05:29:00,38.8,31.6,29.78,SSE,150,0.0,0.0,75,0.00,,,0.00,LWC V2.00 B2112,2013-03-24 09:29:00,
2013-03-24 05:34:00,39.1,32.2,29.78,SSE,150,0.0,0.0,76,0.00,,,0.00,LWC V2.00 B2112,2013-03-24 09:34:00,
2013-03-24 05:39:00,39.5,31.6,29.78,SSE,150,0.0,0.0,73,0.00,,,0.00,LWC V2.00 B2112,2013-03-24 09:39:00,
2013-03-24 05:44:00,40.1,31.8,29.78,SSE,150,0.0,0.0,72,0.00,,,0.00,LWC V2.00 B2112,2013-03-24 09:44:00,
2013-03-24 05:49:00,40.6,29.4,29.78,SSE,150,0.0,0.0,64,0.00,,,0.00,LWC V2.00 B2112,2013-03-24 09:49:00,
2013-03-24 05:54:00,41.2,30.0,29.78,SSE,150,0.0,0.0,64,0.00,,,0.00,LWC V2.00 B2112,2013-03-24 09:54:00,
2013-03-24 05:59:00,41.3,29.7,29.78,SSE,150,0.0,0.0,63,0.00,,,0.00,LWC V2.00 B2112,2013-03-24 09:59:00,
2013-03-24 06:04:00,41.3,29.3,29.78,SSE,150,0.0,0.0,62,0.00,,,0.00,LWC V2.00 B2112,2013-03-24 10:04:00,
2013-03-24 06:09:00,41.2,29.6,29.78,SSE,150,0.0,0.0,63,0.00,,,0.00,LWC V2.00 B2112,2013-03-24 10:09:00,
2013-03-24 06:14:00,40.9,29.7,29.76,SSE,150,0.0,0.0,64,0.00,,,0.00,LWC V2.00 B2112,2013-03-24 10:14:00,
2013-03-24 06:19:00,40.6,29.8,29.76,ESE,120,0.0,0.0,65,0.00,,,0.00,LWC V2.00 B2112,2013-03-24 10:19:00,
2013-03-24 06:24:00,40.3,29.9,29.76,ESE,120,0.0,0.0,66,0.00,,,0.00,LWC V2.00 B2112,2013-03-24 10:24:00,
2013-03-24 06:29:00,40.2,29.8,29.76,East,96,0.0,0.0,66,0.00,,,0.00,LWC V2.00 B2112,2013-03-24 10:29:00,
2013-03-24 06:34:00,40.1,30.0,29.76,East,96,0.0,0.0,67,0.00,,,0.00,LWC V2.00 B2112,2013-03-24 10:34:00,
2013-03-24 06:39:00,39.9,29.5,29.76,East,96,0.0,0.0,66,0.00,,,0.00,LWC V2.00 B2112,2013-03-24 10:39:00,
2013-03-24 06:44:00,39.9,29.5,29.76,East,96,0.0,0.0,66,0.00,,,0.00,LWC V2.00 B2112,2013-03-24 10:44:00,
2013-03-24 06:49:00,39.9,29.5,29.76,East,96,0.0,0.0,66,0.00,,,0.00,LWC V2.00 B2112,2013-03-24 10:49:00,
2013-03-24 06:54:00,40.1,29.7,29.76,East,96,0.0,0.0,66,0.00,,,0.00,LWC V2.00 B2112,2013-03-24 10:54:00,
2013-03-24 06:59:00,40.1,30.0,29.78,East,96,0.0,0.0,67,0.00,,,0.00,LWC V2.00 B2112,2013-03-24 10:59:00,
2013-03-24 07:04:00,39.9,29.5,29.78,East,96,0.0,0.0,66,0.00,,,0.00,LWC V2.00 B2112,2013-03-24 11:04:00,
2013-03-24 07:09:00,39.8,29.4,29.78,East,96,0.0,0.0,66,0.00,,,0.00,LWC V2.00 B2112,2013-03-24 11:09:00,
2013-03-24 07:14:00,39.6,29.6,29.78,East,96,0.0,0.0,67,0.00,,,0.00,LWC V2.00 B2112,2013-03-24 11:14:00,
2013-03-24 07:19:00,39.5,30.2,29.78,East,96,0.0,0.0,69,0.00,,,0.00,LWC V2.00 B2112,2013-03-24 11:19:00,
2013-03-24 07:24:00,39.5,29.8,29.78,East,96,0.0,0.0,68,0.00,,,0.00,LWC V2.00 B2112,2013-03-24 11:24:00,
2013-03-24 07:29:00,39.5,29.8,29.77,East,96,0.0,0.0,68,0.00,,,0.00,LWC V2.00 B2112,2013-03-24 11:29:00,
2013-03-24 07:34:00,39.6,29.9,29.77,East,96,0.0,0.0,68,0.00,,,0.00,LWC V2.00 B2112,2013-03-24 11:34:00,
2013-03-24 07:39:00,39.6,30.3,29.77,East,96,0.0,0.0,69,0.00,,,0.00,LWC V2.00 B2112,2013-03-24 11:39:00,
2013-03-24 07:44:00,39.6,30.3,29.75,East,96,0.0,0.0,69,0.00,,,0.00,LWC V2.00 B2112,2013-03-24 11:44:00,
2013-03-24 07:49:00,39.6,30.3,29.75,East,96,0.0,0.0,69,0.00,,,0.00,LWC V2.00 B2112,2013-03-24 11:49:00,
2013-03-24 07:54:00,39.6,30.3,29.75,East,96,0.0,0.0,69,0.00,,,0.00,LWC V2.00 B2112,2013-03-24 11:54:00,
2013-03-24 07:59:00,39.6,30.3,29.73,East,96,0.0,0.0,69,0.00,,,0.00,LWC V2.00 B2112,2013-03-24 11:59:00,
2013-03-24 08:04:00,39.8,30.1,29.73,East,96,0.0,0.0,68,0.00,,,0.00,LWC V2.00 B2112,2013-03-24 12:04:00,
2013-03-24 08:09:00,39.9,30.2,29.73,East,96,0.0,0.0,68,0.00,,,0.00,LWC V2.00 B2112,2013-03-24 12:09:00,
2013-03-24 08:14:00,40.1,30.0,29.75,East,96,0.0,0.0,67,0.00,,,0.00,LWC V2.00 B2112,2013-03-24 12:14:00,
2013-03-24 08:19:00,40.2,30.1,29.75,East,96,0.0,0.0,67,0.00,,,0.00,LWC V2.00 B2112,2013-03-24 12:19:00,
2013-03-24 08:24:00,40.3,30.2,29.75,East,96,0.0,0.0,67,0.00,,,0.00,LWC V2.00 B2112,2013-03-24 12:24:00,
2013-03-24 08:29:00,40.5,31.1,29.75,East,96,0.0,0.0,69,0.00,,,0.00,LWC V2.00 B2112,2013-03-24 12:29:00,
2013-03-24 08:34:00,40.3,31.3,29.75,East,96,0.0,0.0,70,0.00,,,0.00,LWC V2.00 B2112,2013-03-24 12:34:00,
2013-03-24 08:39:00,40.2,31.9,29.75,East,96,0.0,0.0,72,0.00,,,0.00,LWC V2.00 B2112,2013-03-24 12:39:00,
2013-03-24 08:44:00,40.1,32.2,29.75,East,96,0.0,0.0,73,0.00,,,0.00,LWC V2.00 B2112,2013-03-24 12:44:00,
2013-03-24 08:49:00,39.8,32.5,29.75,East,96,0.0,0.0,75,0.00,,,0.00,LWC V2.00 B2112,2013-03-24 12:49:00,
2013-03-24 08:54:00,39.6,32.7,29.75,East,96,0.0,0.0,76,0.00,,,0.00,LWC V2.00 B2112,2013-03-24 12:54:00,
2013-03-24 08:59:00,39.3,33.0,29.74,East,96,0.0,0.0,78,0.00,,,0.01,LWC V2.00 B2112,2013-03-24 12:59:00,
2013-03-24 09:09:00,38.8,33.5,29.74,East,95,0.0,0.0,81,0.06,,,0.01,LWC V2.00 B2112,2013-03-24 13:09:00,
2013-03-24 09:14:00,38.6,33.9,29.71,East,82,0.0,0.0,83,0.06,,,0.02,LWC V2.00 B2112,2013-03-24 13:14:00,
2013-03-24 09:19:00,38.3,33.6,29.71,ESE,113,2.0,5.0,83,0.06,,,0.02,LWC V2.00 B2112,2013-03-24 13:19:00,
2013-03-24 09:24:00,38.0,33.6,29.71,East,95,0.0,0.0,84,0.04,,,0.02,LWC V2.00 B2112,2013-03-24 13:24:00,
2013-03-24 09:29:00,38.0,33.6,29.70,ESE,116,0.0,0.0,84,0.00,,,0.02,LWC V2.00 B2112,2013-03-24 13:29:00,
2013-03-24 09:34:00,38.0,33.6,29.70,East,94,0.0,4.0,84,0.00,,,0.02,LWC V2.00 B2112,2013-03-24 13:34:00,
2013-03-24 09:39:00,38.0,33.6,29.70,East,88,0.0,0.0,84,0.00,,,0.02,LWC V2.00 B2112,2013-03-24 13:39:00,
2013-03-24 09:44:00,38.2,33.8,29.69,East,89,0.0,5.0,84,0.00,,,0.03,LWC V2.00 B2112,2013-03-24 13:44:00,
2013-03-24 09:49:00,38.0,33.9,29.69,East,91,0.0,0.0,85,0.11,,,0.03,LWC V2.00 B2112,2013-03-24 13:49:00,
2013-03-24 09:54:00,37.9,34.1,29.69,East,98,0.0,0.0,86,0.11,,,0.04,LWC V2.00 B2112,2013-03-24 13:54:00,
2013-03-24 09:59:00,37.9,34.1,29.70,East,81,0.0,4.0,86,0.06,,,0.04,LWC V2.00 B2112,2013-03-24 13:59:00,
2013-03-24 10:04:00,37.9,34.4,29.70,NNE,32,0.0,0.0,87,0.04,,,0.04,LWC V2.00 B2112,2013-03-24 14:04:00,
2013-03-24 10:09:00,38.0,34.5,29.70,NE,34,0.0,0.0,87,0.00,,,0.04,LWC V2.00 B2112,2013-03-24 14:09:00,
2013-03-24 10:14:00,37.9,34.4,29.72,NE,34,0.0,0.0,87,0.00,,,0.05,LWC V2.00 B2112,2013-03-24 14:14:00,
2013-03-24 10:19:00,37.9,34.4,29.72,NE,35,0.0,0.0,87,0.00,,,0.05,LWC V2.00 B2112,2013-03-24 14:19:00,
2013-03-24 10:24:00,37.9,34.7,29.72,North,0,0.0,0.0,88,0.08,,,0.06,LWC V2.00 B2112,2013-03-24 14:24:00,
2013-03-24 10:29:00,37.9,34.7,29.74,SSE,161,0.0,0.0,88,0.09,,,0.07,LWC V2.00 B2112,2013-03-24 14:29:00,
2013-03-24 10:34:00,37.8,34.6,29.74,East,81,0.0,0.0,88,0.10,,,0.08,LWC V2.00 B2112,2013-03-24 14:34:00,
2013-03-24 10:39:00,37.8,34.9,29.74,East,81,0.0,0.0,89,0.13,,,0.09,LWC V2.00 B2112,2013-03-24 14:39:00,
2013-03-24 10:44:00,37.8,35.1,29.75,East,81,0.0,0.0,90,0.19,,,0.10,LWC V2.00 B2112,2013-03-24 14:44:00,
2013-03-24 10:49:00,37.8,35.4,29.75,East,84,0.0,0.0,91,0.23,,,0.12,LWC V2.00 B2112,2013-03-24 14:49:00,
2013-03-24 10:54:00,37.8,35.7,29.75,ENE,68,0.0,0.0,92,0.14,,,0.13,LWC V2.00 B2112,2013-03-24 14:54:00,
2013-03-24 10:59:00,37.8,35.7,29.73,ESE,105,0.0,5.0,92,0.16,,,0.14,LWC V2.00 B2112,2013-03-24 14:59:00,
2013-03-24 11:04:00,37.9,36.1,29.73,East,80,0.0,0.0,93,0.13,,,0.15,LWC V2.00 B2112,2013-03-24 15:04:00,
2013-03-24 11:09:00,38.0,36.4,29.73,ENE,76,0.0,8.0,94,0.08,,,0.16,LWC V2.00 B2112,2013-03-24 15:09:00,
2013-03-24 11:14:00,38.0,36.4,29.68,ENE,76,0.0,4.0,94,0.08,,,0.16,LWC V2.00 B2112,2013-03-24 15:14:00,
2013-03-24 11:19:00,38.2,36.9,29.68,East,86,4.0,8.0,95,0.05,,,0.16,LWC V2.00 B2112,2013-03-24 15:19:00,
2013-03-24 11:24:00,38.3,37.0,29.68,East,89,2.0,3.0,95,0.00,,,0.16,LWC V2.00 B2112,2013-03-24 15:24:00,
2013-03-24 11:29:00,38.3,36.7,29.67,ENE,70,3.0,6.0,94,0.00,,,0.16,LWC V2.00 B2112,2013-03-24 15:29:00,
2013-03-24 11:34:00,38.3,36.7,29.67,ENE,77,6.0,7.0,94,0.00,,,0.16,LWC V2.00 B2112,2013-03-24 15:34:00,
2013-03-24 11:39:00,38.3,36.5,29.67,East,100,3.0,4.0,93,0.00,,,0.16,LWC V2.00 B2112,2013-03-24 15:39:00,
2013-03-24 11:44:00,38.5,36.9,29.66,ENE,57,0.0,6.0,94,0.00,,,0.16,LWC V2.00 B2112,2013-03-24 15:44:00,
2013-03-24 11:49:00,38.5,36.7,29.66,East,91,1.0,8.0,93,0.00,,,0.16,LWC V2.00 B2112,2013-03-24 15:49:00,
2013-03-24 11:54:00,38.6,36.8,29.66,ENE,64,1.0,6.0,93,0.00,,,0.16,LWC V2.00 B2112,2013-03-24 15:54:00,
2013-03-24 11:59:00,38.8,37.0,29.64,East,94,8.0,8.0,93,0.00,,,0.16,LWC V2.00 B2112,2013-03-24 15:59:00,
2013-03-24 12:04:00,38.8,37.0,29.64,ENE,71,0.0,5.0,93,0.00,,,0.16,LWC V2.00 B2112,2013-03-24 16:04:00,
2013-03-24 12:09:00,38.8,36.7,29.64,East,86,2.0,4.0,92,0.00,,,0.16,LWC V2.00 B2112,2013-03-24 16:09:00,
2013-03-24 12:14:00,38.8,36.7,29.63,ENE,63,1.0,5.0,92,0.00,,,0.16,LWC V2.00 B2112,2013-03-24 16:14:00,
2013-03-24 12:19:00,38.8,36.7,29.63,East,96,4.0,6.0,92,0.00,,,0.16,LWC V2.00 B2112,2013-03-24 16:19:00,
2013-03-24 12:24:00,38.8,36.7,29.63,ENE,77,0.0,0.0,92,0.00,,,0.16,LWC V2.00 B2112,2013-03-24 16:24:00,
2013-03-24 12:29:00,38.9,36.8,29.62,NNE,26,2.0,6.0,92,0.00,,,0.16,LWC V2.00 B2112,2013-03-24 16:29:00,
2013-03-24 12:34:00,38.9,36.8,29.62,East,100,0.0,0.0,92,0.00,,,0.16,LWC V2.00 B2112,2013-03-24 16:34:00,
2013-03-24 12:39:00,39.1,37.0,29.62,East,92,2.0,9.0,92,0.00,,,0.16,LWC V2.00 B2112,2013-03-24 16:39:00,
2013-03-24 12:44:00,39.1,36.7,29.62,East,94,0.0,4.0,91,0.00,,,0.16,LWC V2.00 B2112,2013-03-24 16:44:00,
2013-03-24 12:49:00,39.1,37.0,29.62,East,89,0.0,0.0,92,0.00,,,0.17,LWC V2.00 B2112,2013-03-24 16:49:00,
2013-03-24 12:54:00,39.1,37.0,29.62,East,89,0.0,0.0,92,0.10,,,0.17,LWC V2.00 B2112,2013-03-24 16:54:00,
2013-03-24 12:59:00,38.9,36.8,29.62,NE,37,0.0,0.0,92,0.10,,,0.18,LWC V2.00 B2112,2013-03-24 16:59:00,
2013-03-24 13:04:00,38.9,37.1,29.62,NE,36,0.0,0.0,93,0.08,,,0.19,LWC V2.00 B2112,2013-03-24 17:04:00,
2013-03-24 13:09:00,38.8,37.0,29.62,ENE,58,0.0,2.0,93,0.08,,,0.19,LWC V2.00 B2112,2013-03-24 17:09:00,
2013-03-24 13:14:00,38.8,37.2,29.59,East,87,0.0,0.0,94,0.06,,,0.20,LWC V2.00 B2112,2013-03-24 17:14:00,
2013-03-24 13:19:00,38.8,37.2,29.59,ENE,72,0.0,0.0,94,0.06,,,0.20,LWC V2.00 B2112,2013-03-24 17:19:00,
2013-03-24 13:24:00,38.8,37.2,29.59,ENE,60,0.0,4.0,94,0.05,,,0.20,LWC V2.00 B2112,2013-03-24 17:24:00,
2013-03-24 13:29:00,38.6,37.0,29.58,NE,46,0.0,5.0,94,0.04,,,0.21,LWC V2.00 B2112,2013-03-24 17:29:00,
2013-03-24 13:34:00,38.5,36.9,29.58,ENE,70,0.0,0.0,94,0.04,,,0.21,LWC V2.00 B2112,2013-03-24 17:34:00,
2013-03-24 13:39:00,38.5,37.2,29.58,ENE,70,0.0,0.0,95,0.06,,,0.22,LWC V2.00 B2112,2013-03-24 17:39:00,
2013-03-24 13:44:00,38.3,37.0,29.57,ENE,60,0.0,0.0,95,0.06,,,0.22,LWC V2.00 B2112,2013-03-24 17:44:00,
2013-03-24 13:49:00,38.3,37.0,29.57,East,86,0.0,0.0,95,0.06,,,0.23,LWC V2.00 B2112,2013-03-24 17:49:00,
2013-03-24 13:54:00,38.2,36.9,29.57,East,86,0.0,0.0,95,0.13,,,0.24,LWC V2.00 B2112,2013-03-24 17:54:00,
2013-03-24 13:59:00,38.2,36.9,29.56,East,88,0.0,6.0,95,0.14,,,0.26,LWC V2.00 B2112,2013-03-24 17:59:00,
2013-03-24 14:04:00,38.0,36.7,29.56,East,91,0.0,0.0,95,0.12,,,0.27,LWC V2.00 B2112,2013-03-24 18:04:00,
2013-03-24 14:09:00,38.2,37.2,29.56,East,82,5.0,6.0,96,0.11,,,0.28,LWC V2.00 B2112,2013-03-24 18:09:00,
2013-03-24 14:14:00,38.3,37.3,29.53,NE,49,0.0,3.0,96,0.15,,,0.29,LWC V2.00 B2112,2013-03-24 18:14:00,
2013-03-24 14:19:00,38.3,37.3,29.53,NE,51,0.0,4.0,96,0.27,,,0.31,LWC V2.00 B2112,2013-03-24 18:19:00,
2013-03-24 14:24:00,38.2,37.2,29.53,East,88,0.0,3.0,96,0.18,,,0.32,LWC V2.00 B2112,2013-03-24 18:24:00,
2013-03-24 14:29:00,38.2,37.2,29.54,ESE,105,0.0,0.0,96,0.22,,,0.34,LWC V2.00 B2112,2013-03-24 18:29:00,
2013-03-24 14:34:00,38.2,37.2,29.54,East,93,0.0,4.0,96,0.38,,,0.37,LWC V2.00 B2112,2013-03-24 18:34:00,
2013-03-24 14:39:00,38.0,37.0,29.54,East,87,0.0,0.0,96,0.48,,,0.40,LWC V2.00 B2112,2013-03-24 18:39:00,
2013-03-24 14:44:00,38.0,37.0,29.51,ENE,68,0.0,0.0,96,0.17,,,0.41,LWC V2.00 B2112,2013-03-24 18:44:00,
2013-03-24 14:49:00,37.9,36.9,29.51,East,97,3.0,5.0,96,0.20,,,0.43,LWC V2.00 B2112,2013-03-24 18:49:00,
2013-03-24 14:54:00,37.9,36.9,29.51,East,94,6.0,6.0,96,0.11,,,0.44,LWC V2.00 B2112,2013-03-24 18:54:00,
2013-03-24 14:59:00,37.8,36.8,29.48,NE,34,3.0,10.0,96,0.17,,,0.45,LWC V2.00 B2112,2013-03-24 18:59:00,
2013-03-24 15:04:00,37.6,36.6,29.48,East,84,0.0,0.0,96,0.13,,,0.47,LWC V2.00 B2112,2013-03-24 19:04:00,
2013-03-24 15:09:00,37.6,36.6,29.48,NNE,30,0.0,0.0,96,0.17,,,0.48,LWC V2.00 B2112,2013-03-24 19:09:00,
2013-03-24 15:14:00,37.6,36.6,29.49,East,94,1.0,5.0,96,0.10,,,0.49,LWC V2.00 B2112,2013-03-24 19:14:00,
2013-03-24 15:19:00,37.6,36.8,29.49,NE,56,0.0,0.0,97,0.15,,,0.50,LWC V2.00 B2112,2013-03-24 19:19:00,
2013-03-24 15:24:00,37.6,36.6,29.49,East,84,0.0,0.0,96,0.13,,,0.51,LWC V2.00 B2112,2013-03-24 19:24:00,
2013-03-24 15:29:00,37.6,36.8,29.52,NE,56,0.0,5.0,97,0.13,,,0.52,LWC V2.00 B2112,2013-03-24 19:29:00,
2013-03-24 15:34:00,37.6,36.8,29.52,WNW,299,0.0,3.0,97,0.08,,,0.52,LWC V2.00 B2112,2013-03-24 19:34:00,
2013-03-24 15:39:00,37.6,36.6,29.52,WNW,301,0.0,0.0,96,0.13,,,0.54,LWC V2.00 B2112,2013-03-24 19:39:00,
2013-03-24 15:44:00,37.6,36.8,29.54,ESE,106,0.0,0.0,97,0.14,,,0.55,LWC V2.00 B2112,2013-03-24 19:44:00,
2013-03-24 15:49:00,37.6,36.8,29.54,NE,37,0.0,0.0,97,0.16,,,0.56,LWC V2.00 B2112,2013-03-24 19:49:00,
2013-03-24 15:54:00,37.6,36.6,29.54,West,281,0.0,0.0,96,0.08,,,0.56,LWC V2.00 B2112,2013-03-24 19:54:00,
2013-03-24 15:59:00,37.6,36.6,29.54,East,86,0.0,0.0,96,0.07,,,0.57,LWC V2.00 B2112,2013-03-24 19:59:00,
2013-03-24 16:04:00,37.6,36.8,29.54,ENE,74,0.0,0.0,97,0.13,,,0.58,LWC V2.00 B2112,2013-03-24 20:04:00,
2013-03-24 16:09:00,37.8,37.0,29.54,ENE,74,0.0,0.0,97,0.06,,,0.58,LWC V2.00 B2112,2013-03-24 20:09:00,
2013-03-24 16:14:00,37.6,36.8,29.49,East,90,0.0,0.0,97,0.06,,,0.59,LWC V2.00 B2112,2013-03-24 20:14:00,
2013-03-24 16:19:00,37.5,36.7,29.49,ENE,74,0.0,0.0,97,0.06,,,0.59,LWC V2.00 B2112,2013-03-24 20:19:00,
2013-03-24 16:24:00,37.6,36.8,29.49,ENE,74,0.0,0.0,97,0.04,,,0.59,LWC V2.00 B2112,2013-03-24 20:24:00,
2013-03-24 16:29:00,37.6,36.8,29.51,East,89,0.0,0.0,97,0.00,,,0.59,LWC V2.00 B2112,2013-03-24 20:29:00,
2013-03-24 16:34:00,37.6,36.8,29.51,ESE,110,0.0,0.0,97,0.00,,,0.59,LWC V2.00 B2112,2013-03-24 20:34:00,
2013-03-24 16:39:00,37.5,36.7,29.51,NW,320,0.0,0.0,97,0.00,,,0.59,LWC V2.00 B2112,2013-03-24 20:39:00,
2013-03-24 16:44:00,37.5,36.7,29.54,ENE,71,0.0,0.0,97,0.00,,,0.59,LWC V2.00 B2112,2013-03-24 20:44:00,
2013-03-24 16:49:00,37.5,36.7,29.54,WNW,284,0.0,0.0,97,0.00,,,0.60,LWC V2.00 B2112,2013-03-24 20:49:00,
2013-03-24 16:54:00,37.6,36.8,29.54,East,86,0.0,0.0,97,0.00,,,0.60,LWC V2.00 B2112,2013-03-24 20:54:00,
2013-03-24 16:59:00,37.6,36.8,29.57,WNW,302,0.0,0.0,97,0.00,,,0.60,LWC V2.00 B2112,2013-03-24 20:59:00,
2013-03-24 17:04:00,37.6,36.8,29.57,NNE,30,0.0,0.0,97,0.05,,,0.61,LWC V2.00 B2112,2013-03-24 21:04:00,
2013-03-24 17:09:00,37.6,36.8,29.57,NW,310,0.0,0.0,97,0.07,,,0.62,LWC V2.00 B2112,2013-03-24 21:09:00,
2013-03-24 17:14:00,37.6,36.8,29.57,NE,39,0.0,0.0,97,0.07,,,0.62,LWC V2.00 B2112,2013-03-24 21:14:00,
2013-03-24 17:19:00,37.5,36.7,29.57,NNE,25,2.0,4.0,97,0.09,,,0.63,LWC V2.00 B2112,2013-03-24 21:19:00,
2013-03-24 17:24:00,37.5,36.7,29.57,NW,322,0.0,0.0,97,0.12,,,0.64,LWC V2.00 B2112,2013-03-24 21:24:00,
2013-03-24 17:29:00,37.5,36.7,29.55,SE,136,0.0,3.0,97,0.07,,,0.64,LWC V2.00 B2112,2013-03-24 21:29:00,
2013-03-24 17:34:00,37.5,36.7,29.55,ENE,75,6.0,6.0,97,0.05,,,0.65,LWC V2.00 B2112,2013-03-24 21:34:00,
2013-03-24 17:39:00,37.3,36.5,29.55,NNE,23,0.0,0.0,97,0.05,,,0.65,LWC V2.00 B2112,2013-03-24 21:39:00,
2013-03-24 17:44:00,37.3,36.5,29.55,NE,39,0.0,0.0,97,0.05,,,0.65,LWC V2.00 B2112,2013-03-24 21:44:00,
2013-03-24 17:49:00,37.3,36.5,29.55,East,87,0.0,0.0,97,0.04,,,0.65,LWC V2.00 B2112,2013-03-24 21:49:00,
2013-03-24 17:54:00,37.3,36.5,29.55,ENE,68,0.0,2.0,97,0.00,,,0.65,LWC V2.00 B2112,2013-03-24 21:54:00,
2013-03-24 17:59:00,37.2,36.4,29.53,NE,40,0.0,4.0,97,0.00,,,0.65,LWC V2.00 B2112,2013-03-24 21:59:00,
2013-03-24 18:04:00,37.2,36.4,29.53,NNW,328,0.0,0.0,97,0.00,,,0.65,LWC V2.00 B2112,2013-03-24 22:04:00,
2013-03-24 18:09:00,37.2,36.4,29.53,East,84,1.0,4.0,97,0.00,,,0.65,LWC V2.00 B2112,2013-03-24 22:09:00,
2013-03-24 18:14:00,37.2,36.4,29.52,North,5,0.0,5.0,97,0.00,,,0.65,LWC V2.00 B2112,2013-03-24 22:14:00,
2013-03-24 18:19:00,37.0,36.0,29.52,NE,43,0.0,1.0,96,0.00,,,0.65,LWC V2.00 B2112,2013-03-24 22:19:00,
2013-03-24 18:24:00,37.0,36.0,29.52,East,79,0.0,0.0,96,0.00,,,0.65,LWC V2.00 B2112,2013-03-24 22:24:00,
2013-03-24 18:29:00,36.9,35.9,29.52,East,82,0.0,0.0,96,0.00,,,0.65,LWC V2.00 B2112,2013-03-24 22:29:00,
2013-03-24 18:34:00,36.8,35.8,29.52,ENE,65,0.0,5.0,96,0.00,,,0.65,LWC V2.00 B2112,2013-03-24 22:34:00,
2013-03-24 18:39:00,36.6,35.6,29.52,East,88,0.0,0.0,96,0.00,,,0.65,LWC V2.00 B2112,2013-03-24 22:39:00,
2013-03-24 18:44:00,36.6,35.6,29.51,NE,43,0.0,6.0,96,0.00,,,0.65,LWC V2.00 B2112,2013-03-24 22:44:00,
2013-03-24 18:49:00,36.5,35.5,29.51,East,99,0.0,5.0,96,0.00,,,0.65,LWC V2.00 B2112,2013-03-24 22:49:00,
2013-03-24 18:54:00,36.3,35.3,29.51,NE,44,0.0,6.0,96,0.00,,,0.65,LWC V2.00 B2112,2013-03-24 22:54:00,
2013-03-24 18:59:00,36.3,35.3,29.51,ENE,75,0.0,7.0,96,0.00,,,0.65,LWC V2.00 B2112,2013-03-24 22:59:00,
2013-03-24 19:04:00,36.2,35.2,29.51,ENE,63,3.0,5.0,96,0.00,,,0.65,LWC V2.00 B2112,2013-03-24 23:04:00,
2013-03-24 19:09:00,36.0,34.7,29.51,East,83,0.0,0.0,95,0.00,,,0.65,LWC V2.00 B2112,2013-03-24 23:09:00,
2013-03-24 19:14:00,36.0,34.7,29.49,East,91,0.0,6.0,95,0.00,,,0.65,LWC V2.00 B2112,2013-03-24 23:14:00,
2013-03-24 19:19:00,35.9,34.6,29.49,East,91,0.0,0.0,95,0.00,,,0.65,LWC V2.00 B2112,2013-03-24 23:19:00,
2013-03-24 19:24:00,35.8,34.5,29.49,ENE,64,0.0,7.0,95,0.00,,,0.65,LWC V2.00 B2112,2013-03-24 23:24:00,
2013-03-24 19:29:00,35.8,34.5,29.51,East,90,1.0,5.0,95,0.00,,,0.65,LWC V2.00 B2112,2013-03-24 23:29:00,
2013-03-24 19:34:00,35.8,34.5,29.51,East,98,2.0,4.0,95,0.00,,,0.65,LWC V2.00 B2112,2013-03-24 23:34:00,
2013-03-24 19:39:00,35.8,34.5,29.51,North,3,0.0,0.0,95,0.00,,,0.65,LWC V2.00 B2112,2013-03-24 23:39:00,
2013-03-24 19:44:00,35.8,34.5,29.50,East,86,0.0,0.0,95,0.00,,,0.65,LWC V2.00 B2112,2013-03-24 23:44:00,
2013-03-24 19:49:00,35.6,34.3,29.50,East,85,0.0,7.0,95,0.00,,,0.65,LWC V2.00 B2112,2013-03-24 23:49:00,
2013-03-24 19:54:00,35.6,34.0,29.50,NNE,18,3.0,6.0,94,0.00,,,0.65,LWC V2.00 B2112,2013-03-24 23:54:00,
2013-03-24 19:59:00,35.6,34.0,29.50,ENE,77,0.0,7.0,94,0.00,,,0.65,LWC V2.00 B2112,2013-03-24 23:59:00,
2013-03-24 20:04:00,35.6,34.0,29.50,East,97,0.0,5.0,94,0.00,,,0.65,LWC V2.00 B2112,2013-03-25 00:04:00,
2013-03-24 20:09:00,35.6,34.0,29.50,East,79,2.0,9.0,94,0.00,,,0.65,LWC V2.00 B2112,2013-03-25 00:09:00,
2013-03-24 20:14:00,35.6,34.0,29.51,East,81,0.0,0.0,94,0.00,,,0.65,LWC V2.00 B2112,2013-03-25 00:14:00,
2013-03-24 20:19:00,35.6,34.0,29.51,East,80,0.0,0.0,94,0.00,,,0.65,LWC V2.00 B2112,2013-03-25 00:19:00,
2013-03-24 20:24:00,35.5,33.7,29.51,East,82,0.0,0.0,93,0.00,,,0.65,LWC V2.00 B2112,2013-03-25 00:24:00,
2013-03-24 20:29:00,35.5,33.7,29.52,ESE,112,0.0,0.0,93,0.00,,,0.65,LWC V2.00 B2112,2013-03-25 00:29:00,
2013-03-24 20:34:00,35.5,33.7,29.52,East,91,0.0,0.0,93,0.00,,,0.65,LWC V2.00 B2112,2013-03-25 00:34:00,
2013-03-24 20:39:00,35.6,33.8,29.52,NE,46,0.0,0.0,93,0.00,,,0.65,LWC V2.00 B2112,2013-03-25 00:39:00,
2013-03-24 20:44:00,35.6,33.8,29.53,ESE,108,0.0,0.0,93,0.00,,,0.65,LWC V2.00 B2112,2013-03-25 00:44:00,
2013-03-24 20:49:00,35.6,33.8,29.53,ESE,113,0.0,0.0,93,0.00,,,0.65,LWC V2.00 B2112,2013-03-25 00:49:00,
2013-03-24 20:54:00,35.6,33.8,29.53,ESE,108,0.0,0.0,93,0.00,,,0.65,LWC V2.00 B2112,2013-03-25 00:54:00,
2013-03-24 20:59:00,35.6,33.8,29.53,ENE,75,0.0,0.0,93,0.00,,,0.65,LWC V2.00 B2112,2013-03-25 00:59:00,
2013-03-24 21:04:00,35.6,33.8,29.53,ENE,57,0.0,0.0,93,0.00,,,0.65,LWC V2.00 B2112,2013-03-25 01:04:00,
2013-03-24 21:09:00,35.6,33.8,29.53,WNW,285,0.0,0.0,93,0.00,,,0.65,LWC V2.00 B2112,2013-03-25 01:09:00,
2013-03-24 21:14:00,35.6,33.8,29.54,South,175,0.0,0.0,93,0.00,,,0.65,LWC V2.00 B2112,2013-03-25 01:14:00,
2013-03-24 21:19:00,35.6,33.8,29.54,NNE,32,0.0,0.0,93,0.00,,,0.65,LWC V2.00 B2112,2013-03-25 01:19:00,
2013-03-24 21:24:00,35.6,33.8,29.54,ESE,103,0.0,3.0,93,0.00,,,0.65,LWC V2.00 B2112,2013-03-25 01:24:00,
2013-03-24 21:29:00,35.5,33.7,29.54,ENE,61,0.0,0.0,93,0.00,,,0.65,LWC V2.00 B2112,2013-03-25 01:29:00,
2013-03-24 21:34:00,35.5,33.7,29.54,ENE,61,0.0,0.0,93,0.00,,,0.65,LWC V2.00 B2112,2013-03-25 01:34:00,
2013-03-24 21:39:00,35.5,33.7,29.54,ENE,61,0.0,0.0,93,0.00,,,0.65,LWC V2.00 B2112,2013-03-25 01:39:00,
2013-03-24 21:44:00,35.5,33.7,29.55,ENE,62,0.0,0.0,93,0.00,,,0.65,LWC V2.00 B2112,2013-03-25 01:44:00,
2013-03-24 21:49:00,35.5,33.7,29.55,ENE,62,0.0,0.0,93,0.00,,,0.65,LWC V2.00 B2112,2013-03-25 01:49:00,
2013-03-24 21:54:00,35.5,33.7,29.55,ENE,62,0.0,0.0,93,0.00,,,0.65,LWC V2.00 B2112,2013-03-25 01:54:00,
2013-03-24 21:59:00,35.5,33.7,29.54,ENE,62,0.0,0.0,93,0.00,,,0.65,LWC V2.00 B2112,2013-03-25 01:59:00,
2013-03-24 22:04:00,35.5,33.7,29.54,East,99,0.0,0.0,93,0.00,,,0.65,LWC V2.00 B2112,2013-03-25 02:04:00,
2013-03-24 22:09:00,35.5,33.7,29.54,East,99,0.0,0.0,93,0.00,,,0.65,LWC V2.00 B2112,2013-03-25 02:09:00,
2013-03-24 22:14:00,35.5,33.7,29.55,East,99,0.0,0.0,93,0.00,,,0.65,LWC V2.00 B2112,2013-03-25 02:14:00,
2013-03-24 22:19:00,35.5,33.7,29.55,East,99,0.0,0.0,93,0.00,,,0.65,LWC V2.00 B2112,2013-03-25 02:19:00,
2013-03-24 22:24:00,35.5,33.7,29.55,East,99,0.0,0.0,93,0.00,,,0.65,LWC V2.00 B2112,2013-03-25 02:24:00,
2013-03-24 22:29:00,35.5,33.7,29.54,East,99,0.0,0.0,93,0.00,,,0.65,LWC V2.00 B2112,2013-03-25 02:29:00,
2013-03-24 22:34:00,35.5,33.7,29.54,East,99,0.0,0.0,93,0.00,,,0.65,LWC V2.00 B2112,2013-03-25 02:34:00,
2013-03-24 22:39:00,35.5,33.7,29.54,East,99,0.0,0.0,93,0.00,,,0.65,LWC V2.00 B2112,2013-03-25 02:39:00,
2013-03-24 22:44:00,35.5,33.7,29.55,East,99,0.0,0.0,93,0.00,,,0.65,LWC V2.00 B2112,2013-03-25 02:44:00,
2013-03-24 22:49:00,35.3,33.5,29.55,East,99,0.0,0.0,93,0.00,,,0.65,LWC V2.00 B2112,2013-03-25 02:49:00,
2013-03-24 22:54:00,35.3,33.5,29.55,East,99,0.0,0.0,93,0.00,,,0.65,LWC V2.00 B2112,2013-03-25 02:54:00,
2013-03-24 22:59:00,35.3,33.5,29.55,East,99,0.0,0.0,93,0.00,,,0.65,LWC V2.00 B2112,2013-03-25 02:59:00,
2013-03-24 23:04:00,35.3,33.5,29.55,East,99,0.0,0.0,93,0.00,,,0.65,LWC V2.00 B2112,2013-03-25 03:04:00,
2013-03-24 23:09:00,35.3,33.5,29.55,East,99,0.0,0.0,93,0.00,,,0.65,LWC V2.00 B2112,2013-03-25 03:09:00,
2013-03-24 23:14:00,35.3,33.5,29.54,East,99,0.0,0.0,93,0.00,,,0.65,LWC V2.00 B2112,2013-03-25 03:14:00,
2013-03-24 23:19:00,35.2,33.4,29.54,East,99,0.0,0.0,93,0.00,,,0.65,LWC V2.00 B2112,2013-03-25 03:19:00,
2013-03-24 23:24:00,35.2,33.4,29.54,East,99,0.0,0.0,93,0.00,,,0.65,LWC V2.00 B2112,2013-03-25 03:24:00,
2013-03-24 23:29:00,35.2,33.4,29.54,East,99,0.0,0.0,93,0.00,,,0.65,LWC V2.00 B2112,2013-03-25 03:29:00,
2013-03-24 23:34:00,35.2,33.4,29.54,East,99,0.0,0.0,93,0.00,,,0.65,LWC V2.00 B2112,2013-03-25 03:34:00,
2013-03-24 23:39:00,35.2,33.4,29.54,East,99,0.0,0.0,93,0.00,,,0.65,LWC V2.00 B2112,2013-03-25 03:39:00,
2013-03-24 23:44:00,35.2,33.4,29.50,East,99,0.0,0.0,93,0.00,,,0.65,LWC V2.00 B2112,2013-03-25 03:44:00,
2013-03-24 23:49:00,35.0,33.2,29.50,East,99,0.0,0.0,93,0.00,,,0.65,LWC V2.00 B2112,2013-03-25 03:49:00,
2013-03-24 23:54:00,35.0,33.5,29.50,East,99,0.0,0.0,94,0.00,,,0.65,LWC V2.00 B2112,2013-03-25 03:54:00,
2013-03-24 23:59:00,35.0,33.5,29.49,East,99,0.0,0.0,94,0.00,,,0.65,LWC V2.00 B2112,2013-03-25 03:59:00,